sat.trackr.live / text

‹ back to catalog

STARLINK-11675 [DTC]

NORAD 64235 · 2025-119C

PAYLOAD ACTIVE UNKNOWN

§ Identity

Operator
Country
US
Launch date
2025-06-03
Launch site
AFETR
Launch vehicle
Mass (kg)
RCS (m²)

Purposes: comms

External: N2YO · Heavens-Above · Gunter

§ Orbital elements

Epoch: 2026-09-20T21:18:08.935488Z

Period
91.67 min
Inclination
42.9998°
Eccentricity
0.0001373
Mean motion
15.70867358 rev/d
Perigee alt
355.5 km
Apogee alt
357.3 km
Semi-major
6,734.6 km
B*
9.6836e-4
RAAN
112.5836°
Arg perigee
268.1992°
Mean anomaly
91.8718°
Rev number
7,594

§ Raw data

STARLINK-11675 [DTC]1 64235U 25119C   26263.88760342  .00125847  00000+0  96836-3 0  99962 64235  42.9998 112.5836 0001373 268.1992  91.8718 15.70867358 75949

JSON: /api/v1/satellites/64235 · /tle

For live sub-satellite position, see the globe view (requires WebGL).

§ Visibility from observer

Set your observer location to see the next 7 days of passes ≥ 10°. The values pass through the URL so the page stays shareable.

No JS? Fill the form by hand. The geolocation button needs JavaScript.